Zurück zum Katalog

STARLINK-11369

AktivKommunikationVLEO
NORAD 62095·PAYLOAD·🇺🇸 United States

Gestartet Nov 25, 2024 von Cape Canaveral Space Force Station

Loading…

Nächste Überflüge (nächste 24 Stunden)

TLE

AktuellSource: CelesTrak SupGP

Epoche: Sep 15, 2026, 02:53 UTC

1 62095C 24220H   26258.12062500 -.00022937  00000+0 -17821-3 0  2585
2 62095  43.0003 341.0967 0001677 273.6612 222.2637 15.70842184    17

Verfolge STARLINK-11369 in Echtzeit mit AllMySat

Download on the App Store